Home > Weather > Schwerin > Past weeks

Flag for Germany Weather for the Past 2 Weeks in Schwerin, Mecklenburg-Western Pomerania, Germany

Now
52 °F

Sunny.


Feels Like: 47 °F
Forecast: 41 / 48 °F
Wind: 13 mph from South

Location: Mecklenburg-Vorpommern - Parchim

Current Time: Feb 7, 2016 at 2:33:44 PM

Latest Report: Feb 7, 2016 at 1:50 PM


Visibility: 10 mi

Pressure: 29.50 "Hg

Humidity: 62%

Dew point: 39 °F

Location of SchwerinLocation

Historic Weather in Schwerin — Graph

°F

Schwerin Temperature Yesterday

Maximum temperature yesterday: 50 °F (at 12:50 PM)
Minimum temperature yesterday: 45 °F (at 5:50 AM)
Average temperature yesterday: 47 °F

High & Low Weather Summary for the Past Weeks

 TemperatureHumidityPressure
High52 °F (Jan 27, 11:50 AM)100% (Jan 23, 12:20 PM)30.42 "Hg (Jan 23, 12:20 PM)
Low30 °F (Jan 23, 12:20 PM)54% (Feb 2, 12:50 PM)29.50 "Hg (Jan 30, 5:20 PM)
Average44 °F84%29.94 "Hg
* Reported Jan 23 12:20 PM — Feb 7 12:50 PM, Schwerin, Weather by CustomWeather, © 2016

Note: Actual official high and low records may vary slightly from our data, if they occured in-between our weather recording intervals... More about our weather records

Advertising

Schwerin Weather History for the Previous 24 Hours

 ConditionsComfort  
Time TempWeatherWind HumidityBarometerVisibility
12:50 PM
Sun, Feb 7
52 °FSunny.15 mph62%29.50 "Hg10 mi
12:20 PM50 °FSunny.14 mph67%29.50 "Hg10 mi
11:50 AM50 °FSunny.15 mph67%29.50 "Hg10 mi
11:20 AM50 °FSunny.15 mph62%29.53 "Hg10 mi
10:50 AM48 °FSunny.15 mph66%29.53 "Hg10 mi
10:20 AM46 °FSunny.14 mph71%29.53 "Hg10 mi
9:50 AM45 °FSunny.15 mph71%29.53 "Hg10 mi
9:20 AM43 °FSunny.15 mph76%29.53 "Hg10 mi
8:50 AM43 °FSunny.14 mph76%29.53 "Hg10 mi
8:20 AM43 °FSunny.14 mph76%29.53 "Hg10 mi
7:50 AM43 °FPassing clouds.16 mph76%29.56 "HgN/A
5:50 PM
Sat, Feb 6
46 °FPassing clouds.8 mph87%29.77 "HgN/A
5:20 PM46 °FOvercast.8 mph87%29.77 "HgN/A
4:50 PM48 °FBroken clouds.8 mph82%29.77 "HgN/A
4:20 PM48 °FPartly sunny.8 mph82%29.80 "HgN/A
3:50 PM48 °FPartly sunny.8 mph82%29.80 "HgN/A
3:20 PM50 °FScattered clouds.10 mph76%29.80 "HgN/A
2:50 PM50 °FPassing clouds.12 mph76%29.80 "HgN/A
2:20 PM50 °FSunny.12 mph76%29.83 "Hg10 mi
Weather by CustomWeather, © 2016

See weather overviewHow to use our weather pages